Showing default

PORCUPINE 2, 1577

Orbit data source: Space-Track

PORCUPINE 2, 1577 is a payload satellite owned by NRL (US) in LEO that was launched on Fri, 13 Aug 1965 UTC via a THOR ABLESTAR launch vehicle from the Air Force Western Test Range (AFWTR). Payload-class satellites include a variety of spacecraft equipped with specific instruments for various scientific and technological missions. These include communications satellites like Starlink; space stations such as the ISS; scientific satellites like the Hubble; Earth observation satellites from companies like Planet Labs, Umbra, and HawkEye 360; GPS; miniature CubeSats for education and research; and military/defense satellites.

Loading next visibility...
Identifier
1577, 1965-065J
Orbit
LEO
Country
Flag of USUS
Related business
Manufacturer
NRL
Mission
Spacecraft
Bus & Motor
SURCAL, Unknown motor
Mass
5 kg wet, 5 kg dry
Launch date (UTC)
1965-08-13 (61 years ago)
Launch vehicle
THOR ABLESTAR
Launch site
Air Force Western Test Range (AFWTR)
Object type
Payload
Rocket body
Debris
Shape & HBR
BOX, 0.1 m
Radar Cross Section
Medium (>0.1 m² and <1 m²)

Expand to show TLE details & history
Last TLE update: 11 hours ago

TLE from 11 hours ago
0 PORCUPINE 2
1  1577U 65065J   26237.88279183  .00000096  00000-0  16909-3 0  9991
2  1577  90.0330 212.3178 0067819 267.1923 120.4937 13.36265471971968
Epoch: 2026-08-25T21:11Z
TLE epoch observation values (Epoch: 2026-08-25T21:11:13.214Z)
Latitude
28.39305°
Longitude
-79.64877°
Altitude
1,152.841 km
Speed
7.266 km/s
True Right ascension
14h 09m 12s
True Declination
28° 15' 25"
Sunlit
Object was in daylight at epoch
Visualization orbit readout
Latitude
Unknown
Longitude
Unknown
Altitude
Unknown
Speed
Unknown
Apparent Right ascension
Unknown
Apparent Declination
Unknown
Sunlit
N/A
Visualization observer readout
Local Sidereal Time
23:19:09
Azimuth
Unknown
Elevation
Unknown
Doppler factor
Unknown
Orbital elements
Apogee altitude
1,171.146 km
Perigee altitude
1,069.439 km
Semi-major axis
7,498.43 km
Eccentricity
0.00678
Inclination
90.033°
RAAN
212.3178°
Arg. of periapsis
267.1923°
True anomaly
121.16047°
Mean anomaly
120.4937°
Eccentric anomaly
120.82737°
Mean motion
3.34263 °/min
Orbital period
107.7 mins
BSTAR
0.00016909
Loading maneuver chart data...
Computing Atmospheric mass density...
Loading historical data...
Loading historical data...
Loading historical data...
Loading historical data...
Loading historical data...
Loading historical data...
Loading historical data...

Documentation

Showing up to 5 results
|